Location: Central Falls
(41.8900°N, 71.3929°W)
Time: 16:39:39
(UTC+00:00)

Vanguard 1 Rocket - Pass Details

Date: 06 December 2023
Orbit: 654 x 4218 km, 34.3° (Epoch: 24 February)

Event Time Altitude Azimuth Distance (km) Brightness Sun altitude
Rises 15:32:48 0° 278° (W) 5,653 11.2 23.9°
Reaches altitude 10° 15:38:22 10° 264° (W) 3,940 10.6 24.2°
Maximum altitude 15:44:28 19° 223° (SW) 2,534 10.3 24.5°
Drops below altitude 10° 15:48:49 10° 179° (S) 2,654 11.6 24.7°
Sets 15:51:38 0° 160° (SSE) 3,312 11.6 24.8°
